EW6287 Weather Reports


Display with metric or nautical units.
time (UTC)temp
F
wind
direction
speed
MPH
gust
MPH
rain 1hr
in
rain 24hr
in
rain mn
in
humidity
%
barometer
mb
20260901204549 79 0.0 0.0 0.00 0.00 0.00 51 1010.1
20260901201545 78 0.0 0.0 0.00 0.00 0.00 50 1010.3
20260901200045 80 0.0 0.0 0.00 0.00 0.00 48 1010.4
20260901194545 80 0.0 0.0 0.00 0.00 0.00 48 1010.5
20260901191545 79 0.0 0.0 0.00 0.00 0.00 48 1010.5
20260901190049 79 0.0 0.0 0.00 0.00 0.00 48 1010.4
20260901184549 79 0.0 0.0 0.00 0.00 0.00 46 1010.2
20260901183022 78 0.0 0.0 0.00 0.00 0.00 51 1010.6
20260901181523 79 0.0 0.0 0.00 0.00 0.00 50 1010.7
20260901180044 79 0.0 0.0 0.00 0.00 0.00 50 1010.7
20260901174507 79 0.0 0.0 0.00 0.00 0.00 52 1011.0
20260901173006 79 0.0 0.0 0.00 0.00 0.00 51 1011.0
20260901171512 78 0.0 0.0 0.00 0.00 0.00 51 1011.0
20260901170006 78 0.0 0.0 0.00 0.00 0.00 53 1011.0
20260901164545 78 0.0 0.0 0.00 0.00 0.00 57 1010.9
20260901163039 77 0.0 0.0 0.00 0.00 0.00 58 1011.0
20260901161503 76 0.0 0.0 0.00 0.00 0.00 58 1011.0
20260901160059 75 0.0 0.0 0.00 0.00 0.00 62 1011.2
20260901154530 74 0.0 0.0 0.00 0.00 0.00 63 1011.3
20260901153026 73 0.0 0.0 0.00 0.00 0.00 65 1011.2
20260901151524 72 0.0 0.0 0.00 0.00 0.00 66 1011.1
20260901150021 72 0.0 0.0 0.00 0.00 0.00 68 1011.6
20260901144518 70 0.0 0.0 0.00 0.00 0.00 69 1011.6
20260901143013 69 0.0 0.0 0.00 0.00 0.00 73 1011.3
20260901141517 68 0.0 0.0 0.00 0.00 0.00 76 1011.7
20260901140007 66 0.0 0.0 0.00 0.00 0.00 77 1011.5
20260901134600 65 0.0 0.0 0.00 0.00 0.00 77 1011.4
20260901133047 65 0.0 0.0 0.00 0.00 0.00 76 1011.2
20260901130026 63 0.0 0.0 0.00 0.00 0.00 80 1010.9
20260901124524 62 0.0 0.0 0.00 0.00 0.00 83 1010.5
20260901123028 61 0.0 0.0 0.00 0.00 0.00 83 1010.8
20260901120021 60 0.0 0.0 0.00 0.00 0.00 85 1010.4
20260901114520 59 0.0 0.0 0.00 0.00 0.00 86 1010.5
20260901113020 59 0.0 0.0 0.00 0.00 0.00 86 1010.2
20260901110057 59 0.0 0.0 0.00 0.00 0.00 86 1009.8
20260901104554 59 0.0 0.0 0.00 0.00 0.00 84 1010.1
20260901103002 60 0.0 0.0 0.00 0.00 0.00 84 1009.8
20260901101559 61 0.0 0.0 0.00 0.00 0.00 82 1010.0
20260901100059 61 0.0 0.0 0.00 0.00 0.00 81 1009.9
20260901094559 61 0.0 0.0 0.00 0.00 0.00 81 1009.9
20260901093057 61 0.0 0.0 0.00 0.00 0.00 81 1009.7
20260901091557 61 0.0 0.0 0.00 0.00 0.00 82 1009.8
20260901090056 61 0.0 0.0 0.00 0.00 0.00 82 1009.7
20260901084554 61 0.0 0.0 0.00 0.00 0.00 80 1009.7
20260901083054 62 0.0 0.0 0.00 0.00 0.00 80 1009.5
20260901081551 62 0.0 0.0 0.00 0.00 0.00 78 1009.7
20260901081502 62 0.0 0.0 0.00 0.00 0.00 78 1009.7
20260901080053 63 0.0 0.0 0.00 0.00 0.00 76 1009.6
20260901074600 63 0.0 0.0 0.00 0.00 0.00 75 1009.8
20260901073028 63 0.0 0.0 0.00 0.00 0.00 76 1009.8
20260901071526 63 0.0 0.0 0.00 0.00 0.00 77 1009.7
20260901070048 64 0.0 0.0 0.00 0.00 0.00 76 1009.6
20260901064547 65 0.0 0.0 0.00 0.00 0.00 74 1009.2
20260901063046 65 0.0 0.0 0.00 0.00 0.00 73 1009.4
20260901061543 66 0.0 0.0 0.00 0.00 0.00 71 1009.4
20260901060041 66 0.0 0.0 0.00 0.00 0.00 70 1009.3
20260901054541 66 0.0 0.0 0.00 0.00 0.00 70 1009.3
20260901053045 66 0.0 0.0 0.00 0.00 0.00 71 1009.0
20260901051537 66 0.0 0.0 0.00 0.00 0.00 73 1009.0
20260901050035 66 0.0 0.0 0.00 0.00 0.00 75 1008.7
20260901044533 66 0.0 0.0 0.00 0.00 0.00 75 1008.9
20260901043032 67 0.0 0.0 0.00 0.00 0.00 75 1008.9
20260901041537 67 0.0 0.0 0.00 0.00 0.00 75 1008.9
20260901040032 67 0.0 0.0 0.00 0.00 0.00 76 1009.1
20260901034532 67 0.0 0.0 0.00 0.00 0.00 75 1008.9
20260901033031 68 0.0 0.0 0.00 0.00 0.00 74 1008.9
20260901031532 68 0.0 0.0 0.00 0.00 0.00 73 1008.7
20260901030032 69 0.0 0.0 0.00 0.00 0.00 71 1009.0
20260901024530 69 0.0 0.0 0.00 0.00 0.00 69 1008.8
20260901023029 70 0.0 0.0 0.00 0.00 0.00 68 1008.8
20260901021529 71 0.0 0.0 0.00 0.00 0.00 67 1008.8
20260901020029 71 0.0 0.0 0.00 0.00 0.00 65 1008.8
20260901014528 72 0.0 0.0 0.00 0.00 0.00 62 1008.5
20260901013040 72 0.0 0.0 0.00 0.00 0.00 61 1008.1
20260901011536 73 0.0 0.0 0.00 0.00 0.00 58 1008.3
20260901010028 74 0.0 0.0 0.00 0.00 0.00 56 1008.3
20260901004527 75 0.0 0.0 0.00 0.00 0.00 53 1008.3
20260901003026 76 0.0 0.0 0.00 0.00 0.00 51 1008.5
20260901001532 77 0.0 0.0 0.00 0.00 0.00 49 1008.4
20260901000030 77 0.0 0.0 0.00 0.00 0.00 47 1008.3
20260831234526 78 0.0 0.0 0.00 0.00 0.00 44 1008.1
20260831233025 78 0.0 0.0 0.00 0.00 0.00 44 1008.4
20260831231525 79 0.0 0.0 0.00 0.00 0.00 40 1008.3
20260831230025 80 0.0 0.0 0.00 0.00 0.00 42 1008.3
20260831224525 80 0.0 0.0 0.00 0.00 0.00 43 1008.2
20260831223026 82 0.0 0.0 0.00 0.00 0.00 43 1008.3
20260831221523 82 0.0 0.0 0.00 0.00 0.00 42 1008.1
20260831220024 83 0.0 0.0 0.00 0.00 0.00 43 1007.9
20260831214525 83 0.0 0.0 0.00 0.00 0.00 40 1008.2
20260831213025 84 0.0 0.0 0.00 0.00 0.00 41 1008.2
20260831211523 83 0.0 0.0 0.00 0.00 0.00 42 1008.4
20260831210022 84 0.0 0.0 0.00 0.00 0.00 39 1008.6